Location: Chillicothe
(39.7950°N, 93.5520°W)
Time: 23:25:28
(UTC-05:00)

deb Explorer IX - All Passes

Search period start: 15 October 2019 00:00
Search period end: 25 October 2019 00:00
Orbit: 544 x 1107 km, 38.8° (Epoch: 14 October)

Date Brightness Start Highest point End Pass type
(mag) Time Alt. Az. Time Alt. Az. Time Alt. Az.
15 Oct - 14:59:08 10° SSW 15:04:00 28° SE 15:09:29 10° E daylight
15 Oct - 16:44:30 10° WSW 16:50:41 66° SSE 16:57:43 10° E daylight
15 Oct - 18:31:22 10° W 18:38:07 84° S 18:45:29 10° E daylight
15 Oct - 20:18:37 10° W 20:25:36 61° SSW 20:32:49 10° ESE visible
15 Oct - 22:06:38 10° W 22:12:31 27° SW 22:18:19 10° SSE visible
16 Oct - 14:37:20 10° SSW 14:42:03 28° SE 14:47:24 10° E daylight
16 Oct - 16:22:41 10° WSW 16:28:42 66° SSE 16:35:38 10° E daylight
16 Oct - 18:09:29 10° W 18:16:06 83° S 18:23:25 10° E daylight
16 Oct - 19:56:41 10° W 20:03:34 60° SSW 20:10:47 10° ESE visible
16 Oct - 21:44:39 10° W 21:50:28 26° SW 21:56:17 10° SSE visible
17 Oct - 14:15:33 10° SSW 14:20:07 27° SE 14:25:19 10° E daylight
17 Oct - 16:00:53 10° WSW 16:06:43 66° SSE 16:13:32 10° E daylight
17 Oct - 17:47:38 10° W 17:54:06 83° S 18:01:20 10° E daylight
17 Oct - 19:34:46 10° W 19:41:32 59° SSW 19:48:44 10° ESE visible
17 Oct - 21:22:43 10° W 21:28:26 26° SW 21:34:12 10° SSE visible
18 Oct - 13:53:46 10° SSW 13:58:12 27° SE 14:03:14 10° E daylight
18 Oct - 15:39:06 10° WSW 15:44:47 67° SSE 15:51:26 10° E daylight
18 Oct - 17:25:49 10° W 17:32:06 83° S 17:39:15 10° E daylight
18 Oct - 19:12:52 10° W 19:19:30 58° SSW 19:26:39 10° ESE visible
18 Oct - 21:00:47 10° W 21:06:23 25° SW 21:12:07 10° SSE visible
19 Oct - 13:32:00 10° SSW 13:36:17 27° SE 13:41:10 10° E daylight
19 Oct - 15:17:19 10° WSW 15:22:51 67° SSE 15:29:20 10° E daylight
19 Oct - 17:03:59 10° W 17:10:07 83° S 17:17:10 10° E daylight
19 Oct - 18:51:00 10° W 18:57:28 57° SSW 19:04:34 10° SE visible
19 Oct - 20:38:53 10° W 20:44:21 24° SW 20:50:01 10° SSE visible
20 Oct - 13:10:15 10° SSW 13:14:24 26° SSE 13:19:07 10° E daylight
20 Oct - 14:55:34 10° WSW 15:00:54 67° SSE 15:07:15 10° E daylight
20 Oct - 16:42:12 10° W 16:48:09 82° S 16:55:04 10° E daylight
20 Oct - 18:29:09 10° W 18:35:27 56° SSW 18:42:29 10° SE daylight
20 Oct - 20:17:00 10° W 20:22:20 24° SW 20:27:53 10° SSE visible
21 Oct - 12:48:31 10° SSW 12:52:31 26° SSE 12:57:04 10° E daylight
21 Oct - 14:33:49 10° WSW 14:39:00 67° SSE 14:45:11 10° E daylight
21 Oct - 16:20:24 10° W 16:26:12 82° S 16:32:58 10° E daylight
21 Oct - 18:07:18 10° W 18:13:27 55° SSW 18:20:22 10° SE daylight
21 Oct - 19:55:10 10° W 20:00:19 23° SW 20:05:44 10° SSE visible
22 Oct - 12:26:46 10° SSW 12:30:39 26° SSE 12:35:02 10° E daylight
22 Oct - 14:12:04 10° WSW 14:17:07 67° SSE 14:23:06 10° E daylight
22 Oct - 15:58:38 10° W 16:04:15 82° S 16:10:53 10° E daylight
22 Oct - 17:45:29 10° W 17:51:28 53° SSW 17:58:16 10° SE daylight
22 Oct - 19:33:21 10° W 19:38:18 22° SW 19:43:34 10° SSE visible
23 Oct - 12:05:02 10° SSW 12:08:48 25° SSE 12:13:02 10° E daylight
23 Oct - 13:50:21 10° WSW 13:55:14 67° SSE 14:01:03 10° E daylight
23 Oct - 15:36:53 10° W 15:42:20 81° S 15:48:47 10° E daylight
23 Oct - 17:23:41 10° W 17:29:29 52° SSW 17:36:09 10° SE daylight
23 Oct - 19:11:33 10° W 19:16:18 21° SW 19:21:23 10° SSE visible
24 Oct - 11:43:18 10° SSW 11:46:57 25° SSE 11:51:02 10° E daylight
24 Oct - 13:28:38 10° WSW 13:33:23 67° SSE 13:39:00 10° E daylight
24 Oct - 15:15:08 10° W 15:20:26 81° S 15:26:43 10° E daylight
24 Oct - 17:01:55 10° W 17:07:32 51° SSW 17:14:02 10° SE daylight
24 Oct - 18:49:47 10° W 18:54:19 20° SW 18:59:11 10° S visible
